ONEWEB-0056, 45159

Orbit data source: Space-Track

ONEWEB-0056, 45159 is a payload satellite owned by One Web (UK) in LEO that was launched on Thu, 06 Feb 2020 UTC via a SOYUZ-2-1B launch vehicle from the Tyuratam Missile And Space Complex (TTMTR). Payload-class satellites include a variety of spacecraft equipped with specific instruments for various scientific and technological missions. These include communications satellites like Starlink; space stations such as the ISS; scientific satellites like the Hubble; Earth observation satellites from companies like Planet Labs, Umbra, and HawkEye 360; GPS; miniature CubeSats for education and research; and military/defense satellites.

Loading next visibility...
Identifier
45159, 2020-008AE
Orbit
LEO
Last TLE update
21 hours ago
Origin
Manufacturer
One Web
Mission
Operational Commercial Communications
Bus & Motor
ARROW, Unknown motor
Mass
148 kg wet, ~140 kg dry
Launch date (UTC)
2020-02-06 (5 years ago)
Launch vehicle
SOYUZ-2-1B
Launch site
Tyuratam Missile And Space Complex (TTMTR)
Object type
Payload
Rocket body
Debris
Shape & HBR
Trap Box + 2 Pan, 5 m
Radar Cross Section
2.957 m², Large (>1 m²)

Expand to show TLE details & history

TLE from 21 hours ago
0 ONEWEB-0056
1 45159U 20008AE  25128.52159578 -.00000441  00000-0 -13005-2 0  9996
2 45159  87.8789 116.9455 0002033  86.1045 274.0315 13.10370134255946
Epoch: 2025-05-08T12:31Z
Definitive object data (Epoch: 2025-05-08T12:31:05.875Z)
Latitude
0.00001°
Longitude
62.58013°
Altitude
1,224.507 km
Speed
7.242 km/s
True Right ascension
07h 47m 46s
True Declination
0° 00' 00"
Sunlit
Object was in daylight at TLE epoch
Visualization TLE readout
Latitude
1.8471°
Longitude
-117.66298°
Altitude
1,224.513 km
Speed
7.242 km/s
Apparent Right ascension
22h 12m 28s
Apparent Declination
-42° 18' 37"
Sunlit
Object is in daylight
Visualization observer readout
Local Sidereal Time
17:44:17
Azimuth
135.846° SSE
Elevation
-12.165°
Doppler factor
1
Orbital elements
Apogee altitude
1,220.392 km
Perigee altitude
1,217.303 km
Semi-major axis
7,596.984 km
Eccentricity
0.0002033
Inclination
87.8789°
RAAN
116.9455°
Arg. of periapsis
86.1045°
True anomaly
274.00826°
Mean anomaly
274.0315°
Eccentric anomaly
274.01988°
Mean motion
3.27779 °/min
BSTAR
-0.0013005
Orbital period
109.83 mins
Loading maneuver chart data...
Loading SW <> Apogee altitude chart data...
Loading historical data...
Loading historical data...
Loading historical data...
Loading historical data...
Loading historical data...
Loading historical data...
Loading historical data...

ONEWEB-0056 Visibility forecast

Observer location: undefined°, undefined°

Span
Click to sort rows by Start time (UTC) header in descending order
Start Az.
Max El. time (UTC)
Max El. Az.
Max El.
End time (UTC)
End Az.
14 mins2025-05-09 11:05:56.214Z3.802° NNE2025-05-09 11:12:56.214Z69.222° E43.087°2025-05-09 11:19:56.214Z170.652° S
8 mins2025-05-09 12:58:56.214Z319.607° NNW2025-05-09 13:02:56.214Z280.789° WNW19.225°2025-05-09 13:06:56.214Z245.404° WSW
12 mins2025-05-09 23:26:56.214Z171.402° S2025-05-09 23:31:56.214Z128.556° SE44.016°2025-05-09 23:38:56.214Z3.782° NNE
7 mins2025-05-10 01:19:56.214Z256.334° W2025-05-10 01:22:56.214Z283.832° WNW17.114°2025-05-10 01:26:56.214Z320.21° NNW
|